| time (UTC) | temp F | wind direction | speed MPH | gust MPH | rain 1hr in | rain 24hr in | rain mn in | humidity % | barometer mb |
| 20260505012551 | 68 | 140 | 2.0 | 0.0 | 0.00 | 0.00 | 0.00 | 34 | 1009.4 |
| 20260505011821 | 68 | 246 | 3.0 | 13.0 | 0.00 | 0.00 | 0.00 | 34 | 1009.2 |
| 20260505011515 | 68 | 194 | 3.0 | 13.0 | 0.00 | 0.00 | 0.00 | 34 | 1009.1 |
| 20260505010749 | 68 | 140 | 3.0 | 13.0 | 0.00 | 0.00 | 0.00 | 34 | 1009.0 |
| 20260505010448 | 68 | 153 | 3.0 | 9.0 | 0.00 | 0.00 | 0.00 | 35 | 1009.0 |
| 20260505010145 | 68 | 198 | 2.0 | 9.0 | 0.00 | 0.00 | 0.00 | 34 | 1009.1 |
| 20260505005848 | 68 | 212 | 2.0 | 9.0 | 0.00 | 0.00 | 0.00 | 35 | 1009.1 |
| 20260505005538 | 68 | 207 | 2.0 | 9.0 | 0.00 | 0.00 | 0.00 | 35 | 1009.1 |
| 20260505005233 | 68 | 207 | 2.0 | 9.0 | 0.00 | 0.00 | 0.00 | 35 | 1009.2 |
| 20260505004921 | 68 | 208 | 2.0 | 9.0 | 0.00 | 0.00 | 0.00 | 34 | 1009.0 |
| 20260505004614 | 68 | 174 | 2.0 | 9.0 | 0.00 | 0.00 | 0.00 | 34 | 1009.0 |
| 20260505004312 | 68 | 154 | 1.0 | 9.0 | 0.00 | 0.00 | 0.00 | 34 | 1009.0 |
| 20260505004014 | 68 | 128 | 2.0 | 9.0 | 0.00 | 0.00 | 0.00 | 34 | 1008.9 |
| 20260505003700 | 68 | 87 | 2.0 | 9.0 | 0.00 | 0.00 | 0.00 | 34 | 1008.7 |
| 20260505003359 | 69 | 83 | 2.0 | 9.0 | 0.00 | 0.00 | 0.00 | 33 | 1008.8 |
| 20260505002643 | 69 | 132 | 2.0 | 8.0 | 0.00 | 0.00 | 0.00 | 33 | 1008.8 |
| 20260505002343 | 69 | 208 | 2.0 | 8.0 | 0.00 | 0.00 | 0.00 | 34 | 1008.8 |
| 20260505002047 | 69 | 193 | 2.0 | 7.0 | 0.00 | 0.00 | 0.00 | 33 | 1008.8 |
| 20260505001312 | 69 | 173 | 1.0 | 11.0 | 0.00 | 0.00 | 0.00 | 32 | 1008.8 |
| 20260505001009 | 69 | 122 | 1.0 | 11.0 | 0.00 | 0.00 | 0.00 | 32 | 1008.7 |
| 20260505000242 | 70 | 200 | 2.0 | 11.0 | 0.00 | 0.00 | 0.00 | 33 | 1008.8 |
| 20260504235944 | 70 | 269 | 2.0 | 11.0 | 0.00 | 0.00 | 0.00 | 33 | 1008.8 |
| 20260504235218 | 70 | 192 | 2.0 | 8.0 | 0.00 | 0.00 | 0.00 | 31 | 1008.7 |
| 20260504234922 | 70 | 200 | 2.0 | 11.0 | 0.00 | 0.00 | 0.00 | 31 | 1008.8 |
| 20260504234624 | 70 | 265 | 2.0 | 11.0 | 0.00 | 0.00 | 0.00 | 32 | 1008.7 |
| 20260504234311 | 71 | 136 | 2.0 | 11.0 | 0.00 | 0.00 | 0.00 | 32 | 1008.7 |
| 20260504233958 | 71 | 185 | 2.0 | 11.0 | 0.00 | 0.00 | 0.00 | 31 | 1008.7 |
| 20260504233657 | 71 | 183 | 2.0 | 11.0 | 0.00 | 0.00 | 0.00 | 31 | 1008.6 |
| 20260504233354 | 71 | 169 | 2.0 | 11.0 | 0.00 | 0.00 | 0.00 | 32 | 1008.6 |
| 20260504233041 | 71 | 185 | 2.0 | 11.0 | 0.00 | 0.00 | 0.00 | 30 | 1008.6 |
| 20260504232739 | 71 | 126 | 2.0 | 7.0 | 0.00 | 0.00 | 0.00 | 31 | 1008.6 |
| 20260504232437 | 71 | 156 | 2.0 | 7.0 | 0.00 | 0.00 | 0.00 | 30 | 1008.6 |
| 20260504232135 | 71 | 158 | 1.0 | 7.0 | 0.00 | 0.00 | 0.00 | 30 | 1008.6 |
| 20260504231831 | 72 | 45 | 2.0 | 9.0 | 0.00 | 0.00 | 0.00 | 30 | 1008.6 |
| 20260504231520 | 72 | 232 | 2.0 | 9.0 | 0.00 | 0.00 | 0.00 | 32 | 1008.6 |
| 20260504231219 | 72 | 217 | 2.0 | 9.0 | 0.00 | 0.00 | 0.00 | 31 | 1008.6 |
| 20260504230916 | 72 | 194 | 2.0 | 14.0 | 0.00 | 0.00 | 0.00 | 30 | 1008.6 |
| 20260504230608 | 72 | 123 | 2.0 | 14.0 | 0.00 | 0.00 | 0.00 | 31 | 1008.6 |
| 20260504230304 | 72 | 238 | 2.0 | 14.0 | 0.00 | 0.00 | 0.00 | 29 | 1008.7 |
| 20260504225959 | 72 | 134 | 3.0 | 14.0 | 0.00 | 0.00 | 0.00 | 29 | 1008.7 |
| 20260504225657 | 72 | 270 | 3.0 | 14.0 | 0.00 | 0.00 | 0.00 | 29 | 1008.8 |
| 20260504225344 | 73 | 191 | 3.0 | 14.0 | 0.00 | 0.00 | 0.00 | 29 | 1008.8 |
| 20260504225045 | 73 | 138 | 3.0 | 14.0 | 0.00 | 0.00 | 0.00 | 27 | 1008.9 |
| 20260504224731 | 73 | 140 | 2.0 | 9.0 | 0.00 | 0.00 | 0.00 | 28 | 1009.0 |
| 20260504224016 | 74 | 53 | 2.0 | 9.0 | 0.00 | 0.00 | 0.00 | 27 | 1009.0 |
| 20260504223713 | 74 | 175 | 2.0 | 15.0 | 0.00 | 0.00 | 0.00 | 27 | 1009.0 |
| 20260504223407 | 74 | 64 | 3.0 | 15.0 | 0.00 | 0.00 | 0.00 | 27 | 1008.9 |
| 20260504223111 | 74 | 189 | 4.0 | 15.0 | 0.00 | 0.00 | 0.00 | 26 | 1008.9 |
| 20260504222759 | 75 | 127 | 4.0 | 15.0 | 0.00 | 0.00 | 0.00 | 27 | 1009.0 |
| 20260504222455 | 75 | 178 | 4.0 | 15.0 | 0.00 | 0.00 | 0.00 | 26 | 1008.9 |
| 20260504222143 | 75 | 198 | 4.0 | 15.0 | 0.00 | 0.00 | 0.00 | 28 | 1008.9 |
| 20260504221842 | 75 | 202 | 3.0 | 13.0 | 0.00 | 0.00 | 0.00 | 27 | 1008.9 |
| 20260504221546 | 75 | 199 | 3.0 | 13.0 | 0.00 | 0.00 | 0.00 | 26 | 1008.9 |
| 20260504220830 | 75 | 191 | 2.0 | 14.0 | 0.00 | 0.00 | 0.00 | 24 | 1008.9 |
| 20260504220047 | 75 | 277 | 4.0 | 14.0 | 0.00 | 0.00 | 0.00 | 24 | 1008.9 |
| 20260504215744 | 76 | 226 | 5.0 | 14.0 | 0.00 | 0.00 | 0.00 | 24 | 1008.9 |
| 20260504215448 | 76 | 186 | 4.0 | 14.0 | 0.00 | 0.00 | 0.00 | 25 | 1008.8 |
| 20260504215148 | 76 | 209 | 4.0 | 13.0 | 0.00 | 0.00 | 0.00 | 25 | 1008.9 |
| 20260504214847 | 76 | 188 | 3.0 | 10.0 | 0.00 | 0.00 | 0.00 | 25 | 1008.8 |
| 20260504214548 | 76 | 192 | 3.0 | 10.0 | 0.00 | 0.00 | 0.00 | 24 | 1008.8 |
| 20260504214243 | 76 | 203 | 3.0 | 10.0 | 0.00 | 0.00 | 0.00 | 24 | 1008.8 |
| 20260504213110 | 76 | 236 | 4.0 | 14.0 | 0.00 | 0.00 | 0.00 | 26 | 1008.6 |
| 20260504212804 | 76 | 211 | 4.0 | 14.0 | 0.00 | 0.00 | 0.00 | 25 | 1008.7 |
| 20260504212457 | 76 | 221 | 4.0 | 14.0 | 0.00 | 0.00 | 0.00 | 24 | 1008.8 |
| 20260504212155 | 76 | 219 | 4.0 | 14.0 | 0.00 | 0.00 | 0.00 | 25 | 1008.9 |
| 20260504211847 | 76 | 157 | 3.0 | 14.0 | 0.00 | 0.00 | 0.00 | 22 | 1008.8 |
| 20260504211537 | 76 | 210 | 3.0 | 14.0 | 0.00 | 0.00 | 0.00 | 23 | 1008.6 |
| 20260504211224 | 76 | 223 | 3.0 | 14.0 | 0.00 | 0.00 | 0.00 | 23 | 1008.8 |
| 20260504210920 | 76 | 178 | 3.0 | 10.0 | 0.00 | 0.00 | 0.00 | 23 | 1008.7 |
| 20260504210609 | 76 | 229 | 4.0 | 10.0 | 0.00 | 0.00 | 0.00 | 23 | 1008.8 |
| 20260504210306 | 76 | 219 | 4.0 | 9.0 | 0.00 | 0.00 | 0.00 | 21 | 1008.7 |
| 20260504210004 | 76 | 192 | 4.0 | 9.0 | 0.00 | 0.00 | 0.00 | 23 | 1008.8 |
| 20260504205702 | 77 | 178 | 4.0 | 11.0 | 0.00 | 0.00 | 0.00 | 23 | 1008.8 |
| 20260504205348 | 77 | 171 | 3.0 | 11.0 | 0.00 | 0.00 | 0.00 | 23 | 1008.8 |
| 20260504205049 | 77 | 233 | 3.0 | 11.0 | 0.00 | 0.00 | 0.00 | 24 | 1008.9 |
| 20260504204739 | 77 | 225 | 4.0 | 11.0 | 0.00 | 0.00 | 0.00 | 22 | 1008.9 |
| 20260504204433 | 77 | 296 | 3.0 | 11.0 | 0.00 | 0.00 | 0.00 | 23 | 1008.8 |
| 20260504204125 | 76 | 127 | 4.0 | 11.0 | 0.00 | 0.00 | 0.00 | 22 | 1008.8 |
| 20260504203827 | 76 | 153 | 3.0 | 13.0 | 0.00 | 0.00 | 0.00 | 23 | 1008.8 |
| 20260504203513 | 76 | 233 | 4.0 | 13.0 | 0.00 | 0.00 | 0.00 | 21 | 1008.8 |
| 20260504203209 | 76 | 224 | 3.0 | 13.0 | 0.00 | 0.00 | 0.00 | 23 | 1008.9 |
| 20260504202905 | 76 | 197 | 3.0 | 13.0 | 0.00 | 0.00 | 0.00 | 21 | 1009.0 |
| 20260504202604 | 76 | 243 | 3.0 | 13.0 | 0.00 | 0.00 | 0.00 | 21 | 1009.0 |
| 20260504202257 | 76 | 264 | 3.0 | 13.0 | 0.00 | 0.00 | 0.00 | 22 | 1009.0 |
| 20260504202000 | 76 | 320 | 3.0 | 13.0 | 0.00 | 0.00 | 0.00 | 22 | 1009.1 |
| 20260504201648 | 76 | 181 | 3.0 | 13.0 | 0.00 | 0.00 | 0.00 | 23 | 1009.1 |
| 20260504201338 | 76 | 180 | 4.0 | 13.0 | 0.00 | 0.00 | 0.00 | 23 | 1009.1 |
| 20260504201026 | 76 | 179 | 4.0 | 13.0 | 0.00 | 0.00 | 0.00 | 21 | 1009.2 |
| 20260504200716 | 76 | 171 | 4.0 | 17.0 | 0.00 | 0.00 | 0.00 | 21 | 1009.3 |
| 20260504200418 | 76 | 173 | 4.0 | 17.0 | 0.00 | 0.00 | 0.00 | 22 | 1009.3 |
| 20260504200110 | 76 | 197 | 4.0 | 17.0 | 0.00 | 0.00 | 0.00 | 22 | 1009.4 |
| 20260504195805 | 76 | 237 | 4.0 | 17.0 | 0.00 | 0.00 | 0.00 | 21 | 1009.4 |
| 20260504195055 | 76 | 199 | 4.0 | 17.0 | 0.00 | 0.00 | 0.00 | 22 | 1009.5 |
| 20260504194752 | 76 | 259 | 3.0 | 15.0 | 0.00 | 0.00 | 0.00 | 22 | 1009.5 |
| 20260504194021 | 76 | 185 | 4.0 | 15.0 | 0.00 | 0.00 | 0.00 | 22 | 1009.6 |
| 20260504193258 | 76 | 195 | 4.0 | 13.0 | 0.00 | 0.00 | 0.00 | 23 | 1009.8 |
| 20260504193002 | 76 | 220 | 4.0 | 13.0 | 0.00 | 0.00 | 0.00 | 24 | 1009.9 |
| 20260504192657 | 76 | 281 | 4.0 | 13.0 | 0.00 | 0.00 | 0.00 | 23 | 1009.9 |
| 20260504191940 | 76 | 185 | 4.0 | 14.0 | 0.00 | 0.00 | 0.00 | 24 | 1010.0 |
| 20260504191219 | 75 | 147 | 5.0 | 15.0 | 0.00 | 0.00 | 0.00 | 25 | 1010.2 |
| 20260504190906 | 76 | 267 | 5.0 | 15.0 | 0.00 | 0.00 | 0.00 | 23 | 1010.2 |
| 20260504190601 | 76 | 179 | 6.0 | 15.0 | 0.00 | 0.00 | 0.00 | 24 | 1010.2 |
| 20260504185842 | 76 | 286 | 4.0 | 15.0 | 0.00 | 0.00 | 0.00 | 24 | 1010.4 |
| 20260504184707 | 76 | 249 | 3.0 | 13.0 | 0.00 | 0.00 | 0.00 | 24 | 1010.6 |
| 20260504184401 | 76 | 9 | 3.0 | 13.0 | 0.00 | 0.00 | 0.00 | 27 | 1010.6 |
| 20260504183640 | 75 | 195 | 4.0 | 14.0 | 0.00 | 0.00 | 0.00 | 24 | 1010.8 |
| 20260504183329 | 75 | 178 | 4.0 | 14.0 | 0.00 | 0.00 | 0.00 | 28 | 1010.9 |
| 20260504183017 | 75 | 282 | 4.0 | 14.0 | 0.00 | 0.00 | 0.00 | 24 | 1010.8 |
| 20260504182716 | 75 | 233 | 5.0 | 14.0 | 0.00 | 0.00 | 0.00 | 25 | 1010.9 |
| 20260504182405 | 74 | 283 | 5.0 | 14.0 | 0.00 | 0.00 | 0.00 | 25 | 1010.9 |
| 20260504182109 | 74 | 225 | 5.0 | 14.0 | 0.00 | 0.00 | 0.00 | 23 | 1011.2 |
| 20260504181754 | 75 | 218 | 4.0 | 14.0 | 0.00 | 0.00 | 0.00 | 26 | 1011.2 |
| 20260504180607 | 74 | 234 | 5.0 | 13.0 | 0.00 | 0.00 | 0.00 | 24 | 1011.4 |
| 20260504174959 | 74 | 294 | 4.0 | 15.0 | 0.00 | 0.00 | 0.00 | 25 | 1011.6 |
| 20260504174652 | 74 | 170 | 4.0 | 15.0 | 0.00 | 0.00 | 0.00 | 27 | 1011.5 |
| 20260504174341 | 74 | 271 | 4.0 | 15.0 | 0.00 | 0.00 | 0.00 | 25 | 1011.6 |
| 20260504174030 | 74 | 265 | 4.0 | 15.0 | 0.00 | 0.00 | 0.00 | 25 | 1011.7 |
| 20260504173725 | 73 | 229 | 4.0 | 12.0 | 0.00 | 0.00 | 0.00 | 26 | 1011.7 |
| 20260504173003 | 73 | 279 | 3.0 | 12.0 | 0.00 | 0.00 | 0.00 | 25 | 1011.7 |
| 20260504172702 | 73 | 190 | 3.0 | 12.0 | 0.00 | 0.00 | 0.00 | 26 | 1011.7 |
| 20260504172355 | 73 | 178 | 2.0 | 11.0 | 0.00 | 0.00 | 0.00 | 27 | 1011.8 |
| 20260504171635 | 73 | 244 | 3.0 | 11.0 | 0.00 | 0.00 | 0.00 | 26 | 1011.9 |
| 20260504170908 | 73 | 274 | 4.0 | 11.0 | 0.00 | 0.00 | 0.00 | 27 | 1012.0 |
| 20260504160407 | 70 | 261 | 5.0 | 14.0 | 0.00 | 0.00 | 0.00 | 27 | 1013.0 |
| 20260504151146 | 66 | 336 | 4.0 | 11.0 | 0.00 | 0.00 | 0.00 | 30 | 1013.9 |
| 20260504150844 | 65 | 277 | 3.0 | 12.0 | 0.00 | 0.00 | 0.00 | 30 | 1014.0 |
| 20260504141125 | 59 | 97 | 1.0 | 3.0 | 0.00 | 0.00 | 0.00 | 38 | 1014.0 |
| 20260504140818 | 58 | 276 | 0.0 | 3.0 | 0.00 | 0.00 | 0.00 | 36 | 1014.2 |
| 20260504140511 | 58 | 190 | 0.0 | 3.0 | 0.00 | 0.00 | 0.00 | 36 | 1014.2 |
| 20260504140210 | 58 | 203 | 0.0 | 3.0 | 0.00 | 0.00 | 0.00 | 37 | 1014.3 |
| 20260504130646 | 54 | 333 | 1.0 | 6.0 | 0.00 | 0.00 | 0.00 | 39 | 1014.7 |
| 20260504130347 | 54 | 278 | 1.0 | 6.0 | 0.00 | 0.00 | 0.00 | 41 | 1014.9 |
| 20260504120251 | 48 | 248 | 0.0 | 0.0 | 0.00 | 0.00 | 0.00 | 50 | 1015.2 |
| 20260504110510 | 39 | 268 | 0.0 | 0.0 | 0.00 | 0.00 | 0.00 | 65 | 1015.0 |
| 20260504110211 | 38 | 268 | 0.0 | 0.0 | 0.00 | 0.00 | 0.00 | 65 | 1015.0 |
| 20260504100551 | 36 | 268 | 0.0 | 0.0 | 0.00 | 0.00 | 0.00 | 65 | 1015.2 |
| 20260504100248 | 36 | 268 | 0.0 | 0.0 | 0.00 | 0.00 | 0.00 | 65 | 1015.3 |
| 20260504081911 | 38 | 251 | 0.0 | 1.0 | 0.00 | 0.00 | 0.00 | 62 | 1015.5 |
| 20260504081604 | 38 | 251 | 0.0 | 1.0 | 0.00 | 0.00 | 0.00 | 62 | 1015.7 |
| 20260504081258 | 38 | 248 | 0.0 | 0.0 | 0.00 | 0.00 | 0.00 | 62 | 1015.6 |
| 20260504080948 | 38 | 248 | 0.0 | 0.0 | 0.00 | 0.00 | 0.00 | 62 | 1015.7 |
| 20260504080652 | 38 | 248 | 0.0 | 0.0 | 0.00 | 0.00 | 0.00 | 62 | 1015.6 |
| 20260504060159 | 40 | 264 | 0.0 | 0.0 | 0.00 | 0.00 | 0.00 | 59 | 1015.7 |
| 20260504050105 | 41 | 243 | 0.0 | 0.0 | 0.00 | 0.00 | 0.00 | 56 | 1015.6 |
| 20260504045800 | 41 | 243 | 0.0 | 0.0 | 0.00 | 0.00 | 0.00 | 56 | 1015.7 |
| 20260504045446 | 41 | 243 | 0.0 | 0.0 | 0.00 | 0.00 | 0.00 | 56 | 1015.7 |
| 20260504045137 | 42 | 243 | 0.0 | 0.0 | 0.00 | 0.00 | 0.00 | 56 | 1015.7 |
| 20260504044840 | 42 | 243 | 0.0 | 0.0 | 0.00 | 0.00 | 0.00 | 55 | 1015.8 |
| 20260504044527 | 42 | 243 | 0.0 | 0.0 | 0.00 | 0.00 | 0.00 | 55 | 1015.7 |
| 20260504044221 | 42 | 243 | 0.0 | 0.0 | 0.00 | 0.00 | 0.00 | 55 | 1015.9 |
| 20260504043907 | 42 | 243 | 0.0 | 0.0 | 0.00 | 0.00 | 0.00 | 55 | 1015.8 |
| 20260504043605 | 42 | 243 | 0.0 | 0.0 | 0.00 | 0.00 | 0.00 | 55 | 1015.9 |
| 20260504043258 | 42 | 240 | 0.0 | 0.0 | 0.00 | 0.00 | 0.00 | 55 | 1015.8 |
| 20260504042959 | 42 | 240 | 0.0 | 0.0 | 0.00 | 0.00 | 0.00 | 55 | 1015.8 |
| 20260504042232 | 42 | 240 | 0.0 | 0.0 | 0.00 | 0.00 | 0.00 | 54 | 1015.8 |
| 20260504041929 | 42 | 240 | 0.0 | 0.0 | 0.00 | 0.00 | 0.00 | 54 | 1015.7 |
| 20260504041616 | 42 | 205 | 0.0 | 0.0 | 0.00 | 0.00 | 0.00 | 54 | 1015.8 |
| 20260504041303 | 43 | 163 | 0.0 | 0.0 | 0.00 | 0.00 | 0.00 | 54 | 1015.7 |
| 20260504040553 | 43 | 163 | 0.0 | 0.0 | 0.00 | 0.00 | 0.00 | 54 | 1015.7 |
| 20260504040241 | 43 | 163 | 0.0 | 0.0 | 0.00 | 0.00 | 0.00 | 54 | 1015.8 |
| 20260504035943 | 43 | 163 | 0.0 | 0.0 | 0.00 | 0.00 | 0.00 | 54 | 1015.8 |
| 20260504035639 | 43 | 164 | 0.0 | 0.0 | 0.00 | 0.00 | 0.00 | 53 | 1015.8 |
| 20260504035339 | 43 | 164 | 0.0 | 0.0 | 0.00 | 0.00 | 0.00 | 53 | 1015.9 |
| 20260504035039 | 43 | 160 | 0.0 | 0.0 | 0.00 | 0.00 | 0.00 | 53 | 1015.8 |
| 20260504034735 | 43 | 160 | 0.0 | 0.0 | 0.00 | 0.00 | 0.00 | 53 | 1015.7 |
| 20260504034423 | 43 | 160 | 0.0 | 0.0 | 0.00 | 0.00 | 0.00 | 52 | 1015.8 |
| 20260504034126 | 44 | 150 | 0.0 | 0.0 | 0.00 | 0.00 | 0.00 | 51 | 1015.7 |
| 20260504033813 | 44 | 147 | 0.0 | 0.0 | 0.00 | 0.00 | 0.00 | 52 | 1015.6 |
| 20260504033512 | 44 | 147 | 0.0 | 0.0 | 0.00 | 0.00 | 0.00 | 52 | 1015.7 |
| 20260504033207 | 44 | 147 | 0.0 | 0.0 | 0.00 | 0.00 | 0.00 | 51 | 1015.5 |
| 20260504032449 | 44 | 147 | 0.0 | 0.0 | 0.00 | 0.00 | 0.00 | 51 | 1015.5 |
| 20260504032142 | 44 | 153 | 0.0 | 0.0 | 0.00 | 0.00 | 0.00 | 51 | 1015.4 |
| 20260504031832 | 44 | 261 | 0.0 | 0.0 | 0.00 | 0.00 | 0.00 | 50 | 1015.4 |
| 20260504031114 | 45 | 261 | 0.0 | 0.0 | 0.00 | 0.00 | 0.00 | 51 | 1015.3 |
| 20260504030808 | 45 | 261 | 0.0 | 0.0 | 0.00 | 0.00 | 0.00 | 51 | 1015.3 |
| 20260504030503 | 45 | 261 | 0.0 | 0.0 | 0.00 | 0.00 | 0.00 | 51 | 1015.3 |
| 20260504030154 | 45 | 261 | 0.0 | 0.0 | 0.00 | 0.00 | 0.00 | 51 | 1015.1 |
| 20260504025418 | 45 | 261 | 0.0 | 0.0 | 0.00 | 0.00 | 0.00 | 50 | 1015.1 |
| 20260504024237 | 46 | 261 | 0.0 | 0.0 | 0.00 | 0.00 | 0.00 | 49 | 1015.2 |
| 20260504023938 | 46 | 261 | 0.0 | 0.0 | 0.00 | 0.00 | 0.00 | 49 | 1015.2 |
| 20260504023642 | 46 | 260 | 0.0 | 0.0 | 0.00 | 0.00 | 0.00 | 48 | 1015.2 |
| 20260504022901 | 46 | 260 | 0.0 | 0.0 | 0.00 | 0.00 | 0.00 | 47 | 1015.2 |
| 20260504022151 | 46 | 260 | 0.0 | 0.0 | 0.00 | 0.00 | 0.00 | 47 | 1015.2 |
| 20260504021848 | 46 | 260 | 0.0 | 0.0 | 0.00 | 0.00 | 0.00 | 46 | 1015.1 |
| 20260504021545 | 47 | 260 | 0.0 | 0.0 | 0.00 | 0.00 | 0.00 | 46 | 1015.1 |
| 20260504021240 | 47 | 260 | 0.0 | 0.0 | 0.00 | 0.00 | 0.00 | 45 | 1015.1 |
| 20260504020937 | 47 | 260 | 0.0 | 0.0 | 0.00 | 0.00 | 0.00 | 44 | 1015.1 |
| 20260504020628 | 47 | 260 | 0.0 | 0.0 | 0.00 | 0.00 | 0.00 | 44 | 1015.0 |
| 20260504020326 | 47 | 260 | 0.0 | 0.0 | 0.00 | 0.00 | 0.00 | 44 | 1015.2 |
| 20260504020025 | 47 | 260 | 0.0 | 0.0 | 0.00 | 0.00 | 0.00 | 43 | 1015.1 |
| 20260504015721 | 48 | 260 | 0.0 | 0.0 | 0.00 | 0.00 | 0.00 | 45 | 1015.1 |
| 20260504015414 | 48 | 260 | 0.0 | 0.0 | 0.00 | 0.00 | 0.00 | 44 | 1015.1 |
| 20260504015102 | 48 | 260 | 0.0 | 0.0 | 0.00 | 0.00 | 0.00 | 43 | 1015.2 |
| 20260504014342 | 49 | 260 | 0.0 | 0.0 | 0.00 | 0.00 | 0.00 | 42 | 1015.1 |
| 20260504014031 | 49 | 260 | 0.0 | 0.0 | 0.00 | 0.00 | 0.00 | 41 | 1015.0 |
| 20260504013730 | 49 | 260 | 0.0 | 0.0 | 0.00 | 0.00 | 0.00 | 40 | 1015.0 |
| 20260504013428 | 49 | 260 | 0.0 | 0.0 | 0.00 | 0.00 | 0.00 | 40 | 1015.1 |
| 20260504013115 | 49 | 260 | 0.0 | 0.0 | 0.00 | 0.00 | 0.00 | 41 | 1015.0 |
| 20260504012806 | 50 | 260 | 0.0 | 0.0 | 0.00 | 0.00 | 0.00 | 40 | 1015.2 |